EW3995 Weather Reports


Display with metric or nautical units.
time (UTC)temp
F
wind
direction
speed
MPH
gust
MPH
rain 1hr
in
rain 24hr
in
rain mn
in
humidity
%
barometer
mb
20180924095653 72 209 6.0 13.0 0.00 0.00 0.00 38 1011.6
20180924094653 73 176 5.0 13.0 0.00 0.00 0.00 38 1011.6
20180924093653 73 198 4.0 11.0 0.00 0.00 0.00 38 1012.7
20180924092653 73 170 7.0 11.0 0.00 0.00 0.00 40 1011.6
20180924091653 73 192 6.0 11.0 0.00 0.00 0.00 41 1011.6
20180924090653 72 151 5.0 9.0 0.00 0.00 0.00 43 1010.6
20180924085653 72 176 5.0 6.0 0.00 0.00 0.00 44 1010.6
20180924084653 71 142 5.0 8.0 0.00 0.00 0.00 46 1010.6
20180924083653 71 162 4.0 8.0 0.00 0.00 0.00 46 1011.6
20180924082653 70 144 4.0 8.0 0.00 0.00 0.00 46 1011.6
20180924081653 70 158 4.0 9.0 0.00 0.00 0.00 46 1011.6
20180924080653 70 145 6.0 7.0 0.00 0.00 0.00 45 1011.6
20180924075653 71 162 4.0 7.0 0.00 0.00 0.00 46 1011.6
20180924074653 70 170 4.0 7.0 0.00 0.00 0.00 47 1011.6
20180924073653 70 165 4.0 8.0 0.00 0.00 0.00 48 1011.6
20180924072653 69 160 3.0 9.0 0.00 0.00 0.00 49 1011.6
20180924071523 69 115 2.0 5.0 0.00 0.00 0.00 53 1011.6
20180924070523 67 112 3.0 9.0 0.00 0.00 0.00 55 1011.6
20180924065525 66 139 3.0 7.0 0.00 0.00 0.00 56 1011.6
20180924064526 66 135 3.0 7.0 0.00 0.00 0.00 62 1012.7
20180924063525 64 153 4.0 7.0 0.00 0.00 0.00 63 1012.7
20180924062525 64 168 4.0 6.0 0.00 0.00 0.00 65 1011.6
20180924061525 63 148 4.0 7.0 0.00 0.00 0.00 68 1011.6
20180924060525 63 146 4.0 9.0 0.00 0.00 0.00 72 1011.6
20180924055525 61 145 4.0 7.0 0.00 0.00 0.00 76 1012.7
20180924054225 59 135 3.0 6.0 0.00 0.00 0.00 77 1011.6
20180924053225 60 137 4.0 5.0 0.00 0.00 0.00 76 1011.6
20180924052225 60 126 4.0 6.0 0.00 0.00 0.00 79 1012.7
20180924051225 59 135 4.0 6.0 0.00 0.00 0.00 80 1011.6
20180924050225 59 130 4.0 6.0 0.00 0.00 0.00 77 1011.6
20180924045225 60 146 3.0 6.0 0.00 0.00 0.00 78 1011.6
20180924044225 59 129 3.0 6.0 0.00 0.00 0.00 82 1011.6
20180924043225 58 137 3.0 6.0 0.00 0.00 0.00 89 1011.6
20180924042225 57 135 3.0 6.0 0.00 0.00 0.00 87 1011.6
20180924041225 57 135 3.0 5.0 0.00 0.00 0.00 88 1011.6
20180924040225 57 112 3.0 4.0 0.00 0.00 0.00 90 1011.6
20180924035225 57 126 3.0 6.0 0.00 0.00 0.00 96 1011.6
20180924034225 57 148 2.0 5.0 0.00 0.00 0.00 100 1011.6
20180924033225 55 135 3.0 4.0 0.00 0.00 0.00 100 1011.6
20180924032225 54 144 2.0 4.0 0.00 0.00 0.00 100 1011.6
20180924031225 54 130 2.0 3.0 0.00 0.00 0.00 100 1011.6
20180924030225 54 129 2.0 3.0 0.00 0.00 0.00 100 1011.6
20180924025225 54 135 1.0 3.0 0.00 0.00 0.00 100 1011.6
20180924024225 54 135 1.0 6.0 0.00 0.00 0.00 100 1011.6
20180924023225 55 132 3.0 6.0 0.00 0.00 0.00 100 1011.6
20180924022225 54 155 3.0 6.0 0.00 0.00 0.00 100 1012.7
20180924021225 54 137 3.0 6.0 0.00 0.00 0.00 100 1011.6
20180924020055 54 145 1.0 4.0 0.00 0.00 0.00 100 1011.6
20180924015055 54 145 2.0 6.0 0.00 0.00 0.00 100 1011.6
20180924014055 53 148 2.0 4.0 0.00 0.00 0.00 100 1011.6
20180924013055 53 142 2.0 5.0 0.00 0.00 0.00 100 1011.6
20180924012055 53 137 2.0 3.0 0.00 0.00 0.00 100 1011.6
20180924011055 54 125 0.0 5.0 0.00 0.00 0.00 100 1012.7
20180924010055 54 135 2.0 4.0 0.00 0.00 0.00 100 1012.7
20180924005055 54 106 1.0 5.0 0.00 0.00 0.00 100 1012.7
20180924004055 54 124 1.0 4.0 0.00 0.00 0.00 100 1012.7
20180924003055 54 135 2.0 3.0 0.00 0.00 0.00 100 1013.7
20180924002055 54 120 2.0 4.0 0.00 0.00 0.00 100 1013.7
20180924001055 54 137 2.0 4.0 0.00 0.00 0.00 100 1013.7
20180924000055 54 155 3.0 5.0 0.00 0.00 0.00 100 1013.7
20180923235055 54 140 2.0 4.0 0.00 0.00 0.00 100 1013.7
20180923234055 53 148 1.0 4.0 0.00 0.00 0.00 100 1013.7
20180923232837 53 135 1.0 4.0 0.00 0.00 0.00 100 1013.7
20180923231707 53 153 2.0 4.0 0.00 0.00 0.00 100 1013.7
20180923230706 53 151 2.0 5.0 0.00 0.00 0.00 100 1013.7
20180923225706 53 164 2.0 4.0 0.00 0.00 0.00 100 1013.7
20180923224706 53 143 1.0 4.0 0.00 0.00 0.00 100 1013.7
20180923223706 53 135 1.0 4.0 0.00 0.00 0.00 100 1013.7
20180923222706 53 145 3.0 4.0 0.00 0.00 0.00 100 1013.7
20180923221707 53 132 2.0 4.0 0.00 0.00 0.00 100 1013.7
20180923220706 53 155 3.0 5.0 0.00 0.00 0.00 100 1013.7
20180923215706 53 148 3.0 5.0 0.00 0.00 0.00 100 1013.7
20180923214706 53 142 2.0 4.0 0.00 0.00 0.00 100 1013.7
20180923213706 53 164 2.0 5.0 0.00 0.00 0.00 100 1014.7
20180923212706 53 139 2.0 4.0 0.00 0.00 0.00 100 1014.7
20180923211706 53 144 2.0 3.0 0.00 0.00 0.00 100 1014.7
20180923210706 53 126 1.0 4.0 0.00 0.00 0.00 100 1013.7
20180923205536 53 133 2.0 3.0 0.00 0.00 0.00 100 1014.7
20180923204536 54 180 2.0 4.0 0.00 0.00 0.00 100 1013.7
20180923203536 54 148 3.0 5.0 0.00 0.00 0.00 100 1013.7
20180923202536 54 153 4.0 7.0 0.00 0.00 0.00 100 1013.7
20180923201536 54 154 3.0 6.0 0.00 0.00 0.00 100 1013.7
20180923200536 54 142 3.0 6.0 0.00 0.00 0.00 100 1013.7
20180923195536 54 151 3.0 6.0 0.00 0.00 0.00 100 1013.7
20180923194536 53 173 3.0 5.0 0.00 0.00 0.00 100 1013.7
20180923193536 53 126 0.0 4.0 0.00 0.00 0.00 100 1013.7
20180923192536 53 171 2.0 5.0 0.00 0.00 0.00 99 1013.7
20180923191536 53 238 0.0 4.0 0.00 0.00 0.00 100 1012.7
20180923190536 53 133 2.0 4.0 0.00 0.00 0.00 99 1012.7
20180923185536 53 145 2.0 4.0 0.00 0.00 0.00 100 1013.7
20180923184536 52 147 2.0 5.0 0.00 0.00 0.00 98 1013.7
20180923183405 52 86 0.0 4.0 0.00 0.00 0.00 98 1013.7
20180923182406 52 79 0.0 1.0 0.00 0.00 0.00 96 1012.7
20180923181406 52 112 0.0 0.0 0.00 0.00 0.00 96 1013.7
20180923180406 53 112 0.0 2.0 0.00 0.00 0.00 96 1013.7
20180923175404 54 112 0.0 2.0 0.00 0.00 0.00 96 1013.7
20180923174404 54 146 1.0 3.0 0.00 0.00 0.00 97 1013.7
20180923173404 55 133 3.0 6.0 0.00 0.00 0.00 97 1013.7
20180923172234 54 131 2.0 6.0 0.00 0.00 0.00 97 1013.7
20180923171235 54 148 2.0 6.0 0.00 0.00 0.00 98 1013.7
20180923170234 54 140 2.0 4.0 0.00 0.00 0.00 98 1013.7
20180923165234 54 180 3.0 8.0 0.00 0.00 0.00 99 1013.7
20180923164234 54 172 3.0 4.0 0.00 0.00 0.00 98 1013.7
20180923163234 54 192 2.0 4.0 0.00 0.00 0.00 97 1013.7
20180923162235 54 196 0.0 3.0 0.00 0.00 0.00 97 1013.7
20180923161234 54 167 3.0 6.0 0.00 0.00 0.00 97 1013.7
20180923160234 53 146 2.0 6.0 0.00 0.00 0.00 95 1013.7
20180923155234 53 126 1.0 3.0 0.00 0.00 0.00 94 1014.7
20180923154234 53 331 1.0 4.0 0.00 0.00 0.00 93 1014.7
20180923153234 52 147 0.0 2.0 0.00 0.00 0.00 89 1014.7
20180923152234 53 90 0.0 0.0 0.00 0.00 0.00 88 1014.7
20180923151234 53 112 0.0 2.0 0.00 0.00 0.00 87 1013.7
20180923150234 54 128 0.0 3.0 0.00 0.00 0.00 87 1013.7
20180923145234 55 132 1.0 3.0 0.00 0.00 0.00 87 1014.7
20180923144234 55 155 2.0 3.0 0.00 0.00 0.00 85 1014.7
20180923143234 55 137 1.0 4.0 0.00 0.00 0.00 82 1014.7
20180923142235 56 133 1.0 3.0 0.00 0.00 0.00 79 1014.7
20180923141234 56 137 1.0 3.0 0.00 0.00 0.00 77 1014.7
20180923140234 57 133 0.0 2.0 0.00 0.00 0.00 75 1014.7
20180923135234 58 158 0.0 3.0 0.00 0.00 0.00 74 1014.7
20180923134234 58 158 3.0 4.0 0.00 0.00 0.00 73 1014.7
20180923133234 59 171 3.0 4.0 0.00 0.00 0.00 71 1014.7
20180923132234 60 180 2.0 7.0 0.00 0.00 0.00 70 1014.7
20180923131234 60 170 3.0 6.0 0.00 0.00 0.00 68 1014.7
20180923130234 61 189 3.0 6.0 0.00 0.00 0.00 66 1014.7
20180923125234 61 171 4.0 6.0 0.00 0.00 0.00 63 1014.7
20180923124235 62 170 4.0 6.0 0.00 0.00 0.00 60 1014.7
20180923123234 63 164 3.0 5.0 0.00 0.00 0.00 57 1014.7
20180923122234 64 174 4.0 7.0 0.00 0.00 0.00 56 1015.8
20180923121234 65 178 4.0 6.0 0.00 0.00 0.00 54 1014.7
20180923120234 65 163 4.0 7.0 0.00 0.00 0.00 54 1014.7
20180923115234 66 152 4.0 8.0 0.00 0.00 0.00 53 1015.8
20180923114234 66 162 4.0 8.0 0.00 0.00 0.00 53 1015.8
20180923113234 66 163 3.0 8.0 0.00 0.00 0.00 54 1015.8
20180923112234 66 176 2.0 6.0 0.00 0.00 0.00 54 1015.8
20180923111234 66 158 3.0 6.0 0.00 0.00 0.00 53 1015.8
20180923110104 66 180 3.0 7.0 0.00 0.00 0.00 53 1015.8
20180923105104 66 180 3.0 7.0 0.00 0.00 0.00 53 1015.8
20180923104104 66 218 3.0 6.0 0.00 0.00 0.00 52 1015.8
20180923103104 66 184 4.0 8.0 0.00 0.00 0.00 52 1015.8
20180923102104 66 188 3.0 7.0 0.00 0.00 0.00 52 1015.8
20180923101104 67 186 2.0 6.0 0.00 0.00 0.00 53 1015.8